GOES 10 1 24786U 97019A 09183.22324924 -.00000286 00000-0 10000-3 0 9847 2 24786 3.6696 74.3876 0002051 33.2422 192.8036 1.00278673 44650 SARSAT 7 (NOAA 15) 1 25338U 98030A 09184.41578694 .00000186 00000-0 98387-4 0 9913 2 25338 98.5841 173.2663 0010907 17.0005 343.1538 14.24770922579080 GOES 11 1 26352U 00022A 09184.59505234 .00000093 00000-0 10000-3 0 3852 2 26352 0.4407 262.8093 0002004 270.8476 186.7644 1.00268125 33574 SARSAT 8 (NOAA 16) 1 26536U 00055A 09184.44259245 -.00000166 00000-0 -64460-4 0 4689 2 26536 99.1758 188.5013 0009751 231.4623 128.5686 14.12522782452597 GPS BIIR-07 (DASS) 1 26690U 01004A 09183.88162427 -.00000068 00000-0 10000-3 0 3754 2 26690 53.9645 279.1299 0107047 222.9002 136.2957 2.00571537 61743 GOES 12 1 26871U 01031A 09184.36829697 -.00000249 00000-0 10000-3 0 1229 2 26871 0.0685 98.5079 0004681 348.9556 251.9532 1.00271523 29168 SARSAT 9 (NOAA 17) 1 27453U 02032A 09184.37142751 -.00000110 00000-0 -29383-4 0 4718 2 27453 98.4826 242.8834 0012827 78.7017 281.5601 14.24073201365057 MSG-1 1 27509U 02040B 09181.94349475 .00000062 00000-0 10000-3 0 3393 2 27509 0.6210 34.2011 0008990 314.7565 279.3378 1.00270720 25131 GPS BIIR-08 (DASS) 1 27663U 03005A 09183.73228767 -.00000063 00000-0 10000-3 0 7414 2 27663 55.5088 98.7750 0054175 338.6926 21.0788 2.00575835 47093 INSAT 3A 1 27714U 03013A 09183.80243677 -.00000256 00000-0 10000-3 0 6733 2 27714 0.0550 262.5954 0005501 188.6078 212.1181 1.00270956 22858 GPS BIIR-11 (DASS) 1 28190U 04009A 09184.36899895 .00000049 00000-0 10000-3 0 1957 2 28190 54.8634 161.6770 0058293 338.6507 21.0823 2.00570059 38778 GPS BIIR-12 (DASS) 1 28361U 04023A 09183.65647285 -.00000107 00000-0 10000-3 0 212 2 28361 55.5943 337.8201 0062107 168.5043 191.6377 2.00572442 36841 GPS BIIR-13 (DASS) 1 28474U 04045A 09184.15107896 .00000075 00000-0 10000-3 0 8981 2 28474 53.9266 216.6911 0090358 164.6229 195.7235 2.00563798 34211 SARSAT 10 (NOAA 18) 1 28654U 05018A 09184.42446668 -.00000151 00000-0 -59208-4 0 9617 2 28654 98.9060 127.5379 0013654 321.2097 38.8089 14.11266494212241 GPS IIR-14M (DASS) 1 28874U 05038A 09184.00451783 .00000048 00000-0 10000-3 0 1588 2 28874 54.9959 158.4843 0046175 212.2725 147.4203 2.00560937 27630 MSG-2 1 28912U 05049B 09183.92253747 .00000000 00000-0 10000-3 0 5316 2 28912 0.4133 265.7607 0000490 116.7967 230.7394 1.00275122 13000 GOES 13 1 29155U 06018A 09183.35560316 -.00000084 00000-0 10000-3 0 6610 2 29155 0.1237 235.7889 0001698 305.9399 121.2523 1.00271788 11407 SARSAT 11 (METOP-A) 1 29499U 06044A 09183.80699440 -.00000451 00000-0 -18633-3 0 8465 2 29499 98.6855 243.7202 0001065 91.5802 268.5465 14.21494463140237 GPS IIR-16M (DASS) 1 29601U 06052A 09184.06407853 -.00000065 00000-0 10000-3 0 4986 2 29601 55.4194 97.7879 0034798 315.9822 43.7521 2.00567786 19245 GPS IIR-17M (DASS) 1 32260U 07047A 09183.36273717 -.00000109 00000-0 00000+0 0 2665 2 32260 54.7927 336.6624 0015696 325.3811 34.5099 2.00569293 12626 GPS IIR-18M (DASS) 1 32384U 07062A 09184.19217031 .00000046 00000-0 10000-3 0 2910 2 32384 55.0068 158.9494 0036512 282.9831 76.5897 2.00564587 11366 SARSAT 12 (NOAA 19) 1 33591U 09005A 09184.40799012 .00000270 00000-0 17418-3 0 1635 2 33591 98.7452 129.7467 0013925 193.1800 166.9017 14.10968904 20729